Location: Epalinges
(46.5518°N, 6.6683°E)
Time: 02:05:01
(UTC+00:00)

Cosmos 1151 Rocket - Pass Details

Date: 20 June 2021
Orbit: 592 x 615 km, 82.5° (Epoch: 04 August)

Event Time Altitude Azimuth Distance (km) Brightness Sun altitude
Rises 02:48:31 0° 343° (NNW) 2,846 6.9 -7.5°
Reaches altitude 10° 02:50:51 10° 334° (NNW) 1,937 5.9 -7.2°
Maximum altitude 02:54:45 35° 269° (W) 958 3.7 -6.7°
Drops below altitude 10° 02:58:38 10° 203° (SSW) 1,920 5.0 -6.3°
Enters shadow 02:59:56 - 197° (SSW) 2,421 5.6 -6.1°
